DAL1774 KMIA-KBNA

Flight info

Callsign DAL1774
Flight time N/A
Altitude 40000
Route HURCN4 KPASA Q118 JOHNN JAGIR SWFFT2
Aircraft A339/H-SADE1E2E3GHIJ3J5M1P2RWXY/LB2D1

Departure

Time 2026-05-06 21:49
Airport Miami International Airport (KMIA)

Arrival

Time N/A
Airport Nashville International Airport (KBNA)
Time Latitude Longitude Altitude Speed Heading
2026-05-06 21:35 25.79112 -80.27980 24 ft 0 kts 105°
2026-05-06 21:43 25.79115 -80.27992 30 ft 3 kts 107°
2026-05-06 21:43 25.79123 -80.28012 30 ft 3 kts 131°
2026-05-06 21:44 25.79138 -80.28027 29 ft 3 kts 154°
2026-05-06 21:44 25.79151 -80.28033 30 ft 0 kts 169°
2026-05-06 21:44 25.79149 -80.28033 30 ft 1 kts 174°
2026-05-06 21:45 25.79139 -80.28036 30 ft 2 kts 193°
2026-05-06 21:45 25.79112 -80.28055 30 ft 10 kts 212°
2026-05-06 21:45 25.79050 -80.28120 30 ft 10 kts 254°
2026-05-06 21:45 25.79097 -80.28232 31 ft 24 kts 298°
2026-05-06 21:46 25.79198 -80.28436 23 ft 36 kts 299°
2026-05-06 21:46 25.79340 -80.28649 20 ft 32 kts 302°
2026-05-06 21:46 25.79414 -80.28781 22 ft 24 kts 299°
2026-05-06 21:46 25.79514 -80.28975 22 ft 34 kts 299°
2026-05-06 21:47 25.79636 -80.29221 28 ft 39 kts 298°
2026-05-06 21:47 25.79775 -80.29502 23 ft 37 kts 302°
2026-05-06 21:47 25.79898 -80.29738 17 ft 19 kts 297°
2026-05-06 21:47 25.79947 -80.29861 16 ft 16 kts 292°
2026-05-06 21:48 25.79972 -80.29935 15 ft 13 kts 289°
2026-05-06 21:48 25.80010 -80.30055 17 ft 18 kts 297°
2026-05-06 21:48 25.80072 -80.30079 20 ft 5 kts 57°
2026-05-06 21:48 25.80073 -80.30066 19 ft 0 kts 83°
2026-05-06 21:49 25.80076 -80.30035 17 ft 22 kts 83°
2026-05-06 21:49 25.80098 -80.29512 19 ft 112 kts 88°
2026-05-06 21:49 25.80151 -80.28374 124 ft 178 kts 88°
2026-05-06 21:49 25.80221 -80.26949 1186 ft 188 kts 87°
2026-05-06 21:50 25.80321 -80.25476 2272 ft 205 kts 86°
2026-05-06 21:50 25.80421 -80.23805 3241 ft 221 kts 88°
2026-05-06 21:50 25.80456 -80.22081 4492 ft 225 kts 89°
2026-05-06 21:50 25.80491 -80.20367 5640 ft 229 kts 87°
2026-05-06 21:51 25.80601 -80.18563 6787 ft 231 kts 81°
2026-05-06 21:51 25.81177 -80.16934 7793 ft 229 kts 45°
2026-05-06 21:51 25.82526 -80.16065 8790 ft 228 kts 14°
2026-05-06 21:51 25.84102 -80.15878 9664 ft 234 kts
2026-05-06 21:52 25.85767 -80.15863 10497 ft 237 kts
2026-05-06 21:52 25.87422 -80.15758 11271 ft 239 kts
2026-05-06 21:52 25.89079 -80.15707 12057 ft 241 kts 359°
2026-05-06 21:52 25.90699 -80.16095 12784 ft 244 kts 340°
2026-05-06 21:53 25.92307 -80.16864 13467 ft 248 kts 343°
2026-05-06 21:53 25.93958 -80.17374 14170 ft 247 kts 351°
2026-05-06 21:53 25.95655 -80.17788 14782 ft 251 kts 346°
2026-05-06 21:53 25.97285 -80.18448 15419 ft 254 kts 338°
2026-05-06 21:54 25.98744 -80.19516 16001 ft 260 kts 312°
2026-05-06 21:54 25.99676 -80.21277 16619 ft 267 kts 295°
2026-05-06 21:54 26.00246 -80.23264 17182 ft 273 kts 281°
2026-05-06 21:54 26.00475 -80.25357 17815 ft 273 kts 279°
2026-05-06 21:55 26.00918 -80.27306 18192 ft 275 kts 306°
2026-05-06 21:55 26.02148 -80.28858 18909 ft 257 kts 317°
2026-05-06 21:55 26.03282 -80.30459 19162 ft 277 kts 295°
2026-05-06 21:55 26.03733 -80.32541 19779 ft 269 kts 281°
2026-05-06 21:56 26.04138 -80.34556 20268 ft 274 kts 296°
2026-05-06 21:56 26.05104 -80.36428 20483 ft 285 kts 305°
2026-05-06 21:56 26.06098 -80.38451 20514 ft 311 kts 294°
2026-05-06 21:56 26.06791 -80.40821 20580 ft 335 kts 288°
2026-05-06 21:57 26.07502 -80.43362 20587 ft 359 kts 292°
2026-05-06 21:57 26.08532 -80.46014 20615 ft 382 kts 297°
2026-05-06 21:57 26.09680 -80.48779 20631 ft 406 kts 295°
2026-05-06 21:57 26.10705 -80.51801 20640 ft 428 kts 291°
2026-05-06 21:58 26.11758 -80.54968 20631 ft 445 kts 296°
2026-05-06 21:58 26.13527 -80.57796 20745 ft 458 kts 312°
2026-05-06 21:58 26.15963 -80.60123 21173 ft 460 kts 327°
2026-05-06 21:58 26.18791 -80.61738 22329 ft 451 kts 334°
2026-05-06 21:59 26.21678 -80.63140 22792 ft 466 kts 335°
2026-05-06 21:59 26.24702 -80.64531 23397 ft 476 kts 336°
2026-05-06 21:59 26.27778 -80.65970 23912 ft 484 kts 335°
2026-05-06 21:59 26.30886 -80.67490 24355 ft 491 kts 334°
2026-05-06 22:00 26.34015 -80.69014 24807 ft 496 kts 335°
2026-05-06 22:00 26.37211 -80.70527 25265 ft 494 kts 334°
2026-05-06 22:00 26.40171 -80.72394 25713 ft 489 kts 322°
2026-05-06 22:00 26.42710 -80.74912 26327 ft 485 kts 313°
2026-05-06 22:01 26.44982 -80.77685 27016 ft 483 kts 311°
2026-05-06 22:01 26.47261 -80.80423 27711 ft 481 kts 312°
2026-05-06 22:01 26.49542 -80.83147 28419 ft 479 kts 311°
2026-05-06 22:01 26.51902 -80.85740 29120 ft 478 kts 319°
2026-05-06 22:02 26.54513 -80.88049 29884 ft 476 kts 320°
2026-05-06 22:02 26.57085 -80.90365 30558 ft 473 kts 318°
2026-05-06 22:02 26.59595 -80.92722 31213 ft 470 kts 318°
2026-05-06 22:02 26.62112 -80.95026 31885 ft 467 kts 319°
2026-05-06 22:03 26.64659 -80.97278 32577 ft 464 kts 319°
2026-05-06 22:03 26.67150 -80.99536 33287 ft 460 kts 318°
2026-05-06 22:03 26.69593 -81.01813 34019 ft 456 kts 318°
2026-05-06 22:03 26.72048 -81.04054 34662 ft 453 kts 319°
2026-05-06 22:04 26.74496 -81.06244 35319 ft 449 kts 319°
2026-05-06 22:04 26.76883 -81.08422 36004 ft 445 kts 318°
2026-05-06 22:04 26.79276 -81.10641 36680 ft 440 kts 318°
2026-05-06 22:04 26.81596 -81.12755 37380 ft 436 kts 319°
2026-05-06 22:05 26.83997 -81.14922 37915 ft 435 kts 318°
2026-05-06 22:05 26.86334 -81.17068 38420 ft 434 kts 317°
2026-05-06 22:05 26.88663 -81.19221 38804 ft 436 kts 318°
2026-05-06 22:05 26.91032 -81.21376 39148 ft 437 kts 318°
2026-05-06 22:06 26.93355 -81.23488 39495 ft 437 kts 318°
2026-05-06 22:06 26.95740 -81.25688 39860 ft 437 kts 317°
2026-05-06 22:06 26.98058 -81.27824 40082 ft 439 kts 318°
2026-05-06 22:06 27.00434 -81.29990 40034 ft 440 kts 318°
2026-05-06 22:07 27.05249 -81.34210 40035 ft 442 kts 326°
2026-05-06 22:07 27.10663 -81.37537 40036 ft 442 kts 325°
2026-05-06 22:08 27.15963 -81.41047 40046 ft 443 kts 328°
2026-05-06 22:08 27.21372 -81.44358 40047 ft 441 kts 326°
2026-05-06 22:09 27.26659 -81.47828 40052 ft 441 kts 327°
2026-05-06 22:09 27.32046 -81.51173 40053 ft 440 kts 326°
2026-05-06 22:10 27.37650 -81.54020 40042 ft 445 kts 334°
2026-05-06 22:10 27.43348 -81.56705 40049 ft 443 kts 332°
2026-05-06 22:11 27.48907 -81.59652 40053 ft 439 kts 327°
2026-05-06 22:11 27.54346 -81.62803 40060 ft 442 kts 331°
2026-05-06 22:12 27.58978 -81.65197 40047 ft 439 kts 328°
2026-05-06 22:12 27.64410 -81.68352 40054 ft 440 kts 330°
2026-05-06 22:13 27.69953 -81.71280 40057 ft 438 kts 329°
2026-05-06 22:13 27.75379 -81.74389 40061 ft 438 kts 330°
2026-05-06 22:14 27.80883 -81.77344 40062 ft 437 kts 329°
2026-05-06 22:14 27.86296 -81.80418 40062 ft 437 kts 329°
2026-05-06 22:15 27.91787 -81.83402 40056 ft 436 kts 328°
2026-05-06 22:15 27.97202 -81.86459 40058 ft 436 kts 329°
2026-05-06 22:16 28.02656 -81.89450 40055 ft 435 kts 328°
2026-05-06 22:16 28.08072 -81.92496 40054 ft 435 kts 329°
2026-05-06 22:17 28.13504 -81.95499 40054 ft 433 kts 328°
2026-05-06 22:17 28.18909 -81.98529 40065 ft 433 kts 329°
2026-05-06 22:18 28.24319 -82.01541 40076 ft 432 kts 328°
2026-05-06 22:18 28.29712 -82.04559 40059 ft 432 kts 329°
2026-05-06 22:19 28.35067 -82.07558 40059 ft 431 kts 328°
2026-05-06 22:19 28.40465 -82.10576 40059 ft 431 kts 329°
2026-05-06 22:20 28.45790 -82.13572 40062 ft 430 kts 328°
2026-05-06 22:20 28.50860 -82.17141 40059 ft 424 kts 319°
2026-05-06 22:21 28.55733 -82.20940 40065 ft 425 kts 322°
2026-05-06 22:21 28.60529 -82.24826 40061 ft 423 kts 320°
2026-05-06 22:22 28.65375 -82.28642 40069 ft 423 kts 321°
2026-05-06 22:22 28.70166 -82.32516 40074 ft 422 kts 320°
2026-05-06 22:23 28.74983 -82.36327 40065 ft 422 kts 321°
2026-05-06 22:23 28.79760 -82.40191 40071 ft 421 kts 320°
2026-05-06 22:24 28.84519 -82.43972 40065 ft 421 kts 321°
2026-05-06 22:24 28.89321 -82.47859 40071 ft 421 kts 320°
2026-05-06 22:25 28.94123 -82.51685 40077 ft 420 kts 320°
2026-05-06 22:25 28.98890 -82.55551 40077 ft 420 kts 320°
2026-05-06 22:26 29.03674 -82.59376 40072 ft 419 kts 320°
2026-05-06 22:26 29.08430 -82.63235 40066 ft 419 kts 320°
2026-05-06 22:27 29.13204 -82.67069 40071 ft 418 kts 320°
2026-05-06 22:27 29.17951 -82.70922 40065 ft 418 kts 320°
2026-05-06 22:28 29.22700 -82.74753 40073 ft 417 kts 320°
2026-05-06 22:28 29.27439 -82.78597 40068 ft 417 kts 320°
2026-05-06 22:29 29.32163 -82.82430 40069 ft 416 kts 320°
2026-05-06 22:29 29.36893 -82.86265 40070 ft 416 kts 320°
2026-05-06 22:30 29.41617 -82.90114 40067 ft 415 kts 320°
2026-05-06 22:30 29.46342 -82.93950 40071 ft 415 kts 320°
2026-05-06 22:31 29.51063 -82.97767 40063 ft 416 kts 323°
2026-05-06 22:31 29.56438 -83.00491 40064 ft 424 kts 331°
2026-05-06 22:32 29.61839 -83.03168 40064 ft 423 kts 330°
2026-05-06 22:32 29.67269 -83.05664 40070 ft 423 kts 331°
2026-05-06 22:33 29.72715 -83.08339 40067 ft 422 kts 330°
2026-05-06 22:33 29.78162 -83.10879 40072 ft 422 kts 330°
2026-05-06 22:34 29.83521 -83.13495 40063 ft 421 kts 330°
2026-05-06 22:34 29.88947 -83.16050 40058 ft 421 kts 330°
2026-05-06 22:35 29.94329 -83.18667 40047 ft 420 kts 330°
2026-05-06 22:35 29.99744 -83.21239 40057 ft 420 kts 330°
2026-05-06 22:36 30.05119 -83.23843 40069 ft 419 kts 330°
2026-05-06 22:36 30.10505 -83.26422 40070 ft 419 kts 330°
2026-05-06 22:37 30.15892 -83.29024 40082 ft 418 kts 330°
2026-05-06 22:37 30.21301 -83.31634 40067 ft 418 kts 330°
2026-05-06 22:38 30.26639 -83.34205 40068 ft 418 kts 330°
2026-05-06 22:38 30.32004 -83.36804 40071 ft 418 kts 330°
2026-05-06 22:39 30.37373 -83.39389 40063 ft 417 kts 330°
2026-05-06 22:39 30.42714 -83.41988 40069 ft 417 kts 330°
2026-05-06 22:40 30.48082 -83.44577 40057 ft 416 kts 330°
2026-05-06 22:40 30.53415 -83.47177 40063 ft 416 kts 330°
2026-05-06 22:41 30.61440 -83.51076 40053 ft 415 kts 330°
2026-05-06 22:42 30.66779 -83.53669 40066 ft 416 kts 330°
2026-05-06 22:42 30.72066 -83.56250 40060 ft 415 kts 330°
2026-05-06 22:43 30.77394 -83.58845 40072 ft 415 kts 330°
2026-05-06 22:43 30.82696 -83.61440 40064 ft 414 kts 330°
2026-05-06 22:44 30.88032 -83.64046 40063 ft 414 kts 330°
2026-05-06 22:44 30.93337 -83.66647 40046 ft 414 kts 330°
2026-05-06 22:45 30.98647 -83.69248 40043 ft 414 kts 329°
2026-05-06 22:45 31.03948 -83.71852 40029 ft 413 kts 330°
2026-05-06 22:46 31.09247 -83.74457 40038 ft 413 kts 329°
2026-05-06 22:46 31.14529 -83.77053 40033 ft 412 kts 329°
2026-05-06 22:47 31.19818 -83.79663 40035 ft 412 kts 329°
2026-05-06 22:47 31.25095 -83.82262 40033 ft 411 kts 329°
2026-05-06 22:48 31.30360 -83.84864 40035 ft 411 kts 329°
2026-05-06 22:48 31.35584 -83.87448 40043 ft 410 kts 329°
2026-05-06 22:49 31.40812 -83.90035 40042 ft 410 kts 329°
2026-05-06 22:49 31.46062 -83.92640 40030 ft 409 kts 329°
2026-05-06 22:50 31.51335 -83.95251 40033 ft 409 kts 329°
2026-05-06 22:50 31.56872 -83.97158 40017 ft 417 kts 336°
2026-05-06 22:51 31.62406 -83.99075 40037 ft 415 kts 335°
2026-05-06 22:51 31.68010 -84.00808 40053 ft 416 kts 336°
2026-05-06 22:52 31.73545 -84.02691 40069 ft 414 kts 335°
2026-05-06 22:52 31.79127 -84.04451 40077 ft 414 kts 335°
2026-05-06 22:53 31.84623 -84.06302 40071 ft 414 kts 335°
2026-05-06 22:53 31.90181 -84.08079 40080 ft 413 kts 335°
2026-05-06 22:54 31.94763 -84.09617 40155 ft 413 kts 335°
2026-05-06 22:54 32.00298 -84.11405 40244 ft 412 kts 335°
2026-05-06 22:55 32.05820 -84.13246 40345 ft 412 kts 335°
2026-05-06 22:55 32.11341 -84.15041 40449 ft 411 kts 335°
2026-05-06 22:56 32.16850 -84.16873 40465 ft 411 kts 335°
2026-05-06 22:56 32.22362 -84.18680 40472 ft 411 kts 335°
2026-05-06 22:57 32.27866 -84.20508 40478 ft 411 kts 335°
2026-05-06 22:57 32.33365 -84.22320 40481 ft 410 kts 335°
2026-05-06 22:58 32.38860 -84.24144 40481 ft 410 kts 335°
2026-05-06 22:58 32.44360 -84.25967 40484 ft 410 kts 335°
2026-05-06 22:59 32.49845 -84.27787 40492 ft 410 kts 335°
2026-05-06 22:59 32.55304 -84.29605 40488 ft 409 kts 335°
2026-05-06 23:00 32.60789 -84.31427 40494 ft 409 kts 335°
2026-05-06 23:00 32.66253 -84.33251 40494 ft 408 kts 335°
2026-05-06 23:01 32.71706 -84.35070 40507 ft 408 kts 335°
2026-05-06 23:01 32.77210 -84.36910 40518 ft 410 kts 335°
2026-05-06 23:02 32.82732 -84.38756 40506 ft 409 kts 335°
2026-05-06 23:02 32.88183 -84.40585 40511 ft 410 kts 335°
2026-05-06 23:03 32.93689 -84.42429 40518 ft 411 kts 335°
2026-05-06 23:03 32.99202 -84.44283 40521 ft 411 kts 335°
2026-05-06 23:04 33.04712 -84.46136 40506 ft 411 kts 335°
2026-05-06 23:04 33.10241 -84.47996 40505 ft 412 kts 335°
2026-05-06 23:05 33.15763 -84.49862 40488 ft 412 kts 335°
2026-05-06 23:05 33.21292 -84.51725 40492 ft 413 kts 335°
2026-05-06 23:06 33.26823 -84.53598 40500 ft 413 kts 335°
2026-05-06 23:06 33.32361 -84.55469 40497 ft 414 kts 335°
2026-05-06 23:07 33.37897 -84.57351 40499 ft 414 kts 334°
2026-05-06 23:07 33.43455 -84.59231 40497 ft 415 kts 334°
2026-05-06 23:08 33.48997 -84.61121 40493 ft 415 kts 334°
2026-05-06 23:08 33.54551 -84.63006 40482 ft 415 kts 334°
2026-05-06 23:09 33.60132 -84.64913 40469 ft 416 kts 334°
2026-05-06 23:09 33.65696 -84.66808 40480 ft 416 kts 334°
2026-05-06 23:10 33.71283 -84.68718 40471 ft 416 kts 334°
2026-05-06 23:10 33.76864 -84.70629 40471 ft 417 kts 334°
2026-05-06 23:11 33.82444 -84.72538 40459 ft 418 kts 334°
2026-05-06 23:11 33.88036 -84.74461 40476 ft 418 kts 334°
2026-05-06 23:12 33.93629 -84.76379 40486 ft 418 kts 334°
2026-05-06 23:12 33.99190 -84.78296 40478 ft 419 kts 334°
2026-05-06 23:13 34.04858 -84.80247 40489 ft 420 kts 334°
2026-05-06 23:13 34.10435 -84.82171 40487 ft 421 kts 334°
2026-05-06 23:14 34.16072 -84.84120 40485 ft 421 kts 334°
2026-05-06 23:14 34.21732 -84.86075 40488 ft 422 kts 334°
2026-05-06 23:14 34.24510 -84.87028 40459 ft 408 kts 334°
2026-05-06 23:15 34.27196 -84.87943 40458 ft 389 kts 333°
2026-05-06 23:15 34.29741 -84.88827 40455 ft 371 kts 332°
2026-05-06 23:15 34.32155 -84.89681 40465 ft 353 kts 332°
2026-05-06 23:15 34.34455 -84.90496 40465 ft 337 kts 331°
2026-05-06 23:16 34.36660 -84.91266 40472 ft 321 kts 331°
2026-05-06 23:16 34.38757 -84.91977 40479 ft 305 kts 330°
2026-05-06 23:16 34.40747 -84.92619 40470 ft 287 kts 330°
2026-05-06 23:16 34.42606 -84.93177 40458 ft 265 kts 330°
2026-05-06 23:17 34.44346 -84.93646 40231 ft 247 kts 330°
2026-05-06 23:17 34.46024 -84.94072 39441 ft 248 kts 330°
2026-05-06 23:17 34.47743 -84.94523 38385 ft 257 kts 330°
2026-05-06 23:17 34.49487 -84.94993 37617 ft 254 kts 331°
2026-05-06 23:18 34.51170 -84.95426 37212 ft 240 kts 331°
2026-05-06 23:18 34.52776 -84.95808 36639 ft 233 kts 331°
2026-05-06 23:18 34.54348 -84.96183 35770 ft 237 kts 332°
2026-05-06 23:18 34.55988 -84.96594 34953 ft 239 kts 332°
2026-05-06 23:19 34.57584 -84.96997 34427 ft 232 kts 332°
2026-05-06 23:19 34.59147 -84.97380 33898 ft 224 kts 332°
2026-05-06 23:19 34.60673 -84.97755 33111 ft 226 kts 332°
2026-05-06 23:19 34.62226 -84.98158 32243 ft 230 kts 332°
2026-05-06 23:20 34.63795 -84.98582 31553 ft 230 kts 332°
2026-05-06 23:20 34.65342 -84.99002 30954 ft 226 kts 332°
2026-05-06 23:20 34.66870 -84.99419 30312 ft 225 kts 333°
2026-05-06 23:20 34.68400 -84.99847 29540 ft 227 kts 333°
2026-05-06 23:21 34.69943 -85.00291 28804 ft 226 kts 333°
2026-05-06 23:21 34.71467 -85.00732 28162 ft 223 kts 333°
2026-05-06 23:21 34.72967 -85.01169 27486 ft 221 kts 332°
2026-05-06 23:21 34.74461 -85.01621 26807 ft 220 kts 333°
2026-05-06 23:22 34.75944 -85.02079 26213 ft 219 kts 332°